Terminal Aerodrome Forecast
Issued by NWS

Home | Current Version | Previous Version | Text Only | Print | Product List | Glossary On
Versions: 1 2 3 4 5 6 7 8 9 10 11 12 13 14 15 16 17 18 19 20 21 22 23 24 25 26 27 28 29 30 31 32
000
FTUS43 KGLD 041128 AAF
TAFMCK
TAF AMD
KMCK 041128Z 0411/0512 07004KT 1/4SM FG VV001
      TEMPO 0414/0415 2SM BR BKN003
     FM041500 13008KT 6SM BR BKN008
     FM041800 14010KT P6SM VCTS SCT015 BKN050CB
      TEMPO 0420/0423 14011KT 3SM +TSRA BKN035 OVC050CB
     FM050200 12009KT P6SM BKN250
     FM050900 08006KT 5SM BR SCT007 BKN070=

USA.gov is the U.S. government's official web portal to all federal, state and local government web resources and services.